Regional Weather Roundup
Issued by NWS Spokane, WA

Home | Current Version | Previous Version | Text Only | Print | Product List | Glossary On
Versions: 1 2 3 4 5 6 7 8 9 10 11 12 13 14 15 16 17 18 19 20 21 22 23 24 25 26 27 28 29 30 31 32 33 34 35 36 37 38 39 40 41 42 43 44 45 46 47 48 49 50
000
NZUS01 KOTX 192010
RWROTX
EASTERN WASHINGTON/NORTHERN IDAHO ROUNDUP
NATIONAL WEATHER SERVICE, SPOKANE WA
100 PM PDT FRI SEP 19 2014

Note: "fair" indicated few or no clouds below 12,000 feet with no
significant weather and/or obstructions to visibility.

...NORTHEAST WASHINGTON AND NORTHERN IDAHO PANHANDLE...

CITY           SKY/WX    TMP DP  RH WIND       PRES   REMARKS
SPOKANE INTL   PTSUNNY   72  48  42 W13       30.06S
SPOKANE DOWNTO MOSUNNY   74  48  39 VRB5      30.05F
COEUR D ALENE  PTSUNNY   72  48  43 S9        30.05F
DEER PARK      MOSUNNY   73  48  41 SW12G18   30.05S
SANDPOINT      PTSUNNY   70  50  49 W3        30.05R

...SOUTHEAST WASHINGTON AND SOUTHERN IDAHO PANHANDLE...

CITY           SKY/WX    TMP DP  RH WIND       PRES   REMARKS
WALLA WALLA    SUNNY     78  49  35 SW14      30.05F
PULLMAN/MOSCOW MOSUNNY   72  47  40 W12       30.10S
LEWISTON       SUNNY     79  47  32 N9        30.03F
LOWELL           N/A     81  48  31 CALM      30.02F

...COLUMBIA BASIN...

CITY           SKY/WX    TMP DP  RH WIND       PRES   REMARKS
EPHRATA        MOSUNNY   79  50  36 SW7       30.00S
MOSES LAKE     MOSUNNY   79  50  36 S10       30.01S
TRI CITIES     SUNNY     79  52  38 S8        30.01F
HERMISTON      SUNNY     80  50  34 SW9       30.02F
PENDLETON      SUNNY     77  47  34 SW12      30.05F

...EAST SLOPES CASCADES...

CITY           SKY/WX    TMP DP  RH WIND       PRES   REMARKS
THE DALLES     SUNNY     83  49  30 NW13      30.00F
YAKIMA         SUNNY     79  46  31 E8        30.01F
ELLENSBURG     SUNNY     79  50  36 W10G18    30.03F
STAMPEDE PASS  MOSUNNY   58  50  75 VRB7      30.16
WENATCHEE      MOSUNNY   79  46  31 VRB5      29.99F
OMAK           CLOUDY    80  46  30 SW10      29.98R

...SOUTHERN BRITISH COLUMBIA...

CITY           SKY/WX    TMP DP  RH WIND       PRES   REMARKS
CASTLEGAR      PTSUNNY   72  55  56 SW6       29.98S
CRANBROOK      PTSUNNY   68  43  40 W7        29.96S

...WESTERN MONTANA...

CITY           SKY/WX    TMP DP  RH WIND       PRES   REMARKS
MISSOULA       CLOUDY    69  44  40 W13       30.06S

...NEIGHBORING CITIES...

CITY           SKY/WX    TMP DP  RH WIND       PRES   REMARKS
SEATTLE        PTSUNNY   69  55  60 SW8       30.12S



USA.gov is the U.S. government's official web portal to all federal, state and local government web resources and services.